Weather History for Gillette, WY

Change the Weather History Date:

Tuesday, December 25, 2012

  Actual Average Record
Temperature  
Mean Temperature 4 °F 24 °F  
Max Temperature 13 °F 35 °F 54 °F (2005)
Min Temperature -5 °F 13 °F -28 °F (1983)
Degree Days  
Heating Degree Days 61 41  
Month to date heating degree days 919 1022  
Since 1 July heating degree days 2535 2897  
Cooling Degree Days 0 0  
Month to date cooling degree days 0 0  
Year to date cooling degree days 795 502  
Moisture  
Dew Point 0 °F    
Average Humidity 83    
Maximum Humidity 95    
Minimum Humidity 70    
Precipitation  
Precipitation 0.02 in 0.01 in 0.20 in (1933)
Month to date precipitation 0.22 0.33  
Year to date precipitation 9.23 13.82  
Sea Level Pressure  
Sea Level Pressure 30.27 in    
Wind  
Wind Speed 7 mph (SSW)    
Max Wind Speed 15 mph    
Max Gust Speed 17 mph    
Visibility 6 miles    
Events Snow    
T = Trace of Precipitation, MM = Missing Value Source: NWS Daily Summary

Daily Weather History Graph

Daily Weather History Graph

Search for Another Location

Airport:

Trip Planner

Search our weather history database for the weather conditions in past years. The results will help you decide how hot, cold, wet, or windy it might be!

Date:

Astronomy

Dec. 25, 2012 Rise Set
Actual Time 7:36 AM MST 4:28 PM MST
Civil Twilight 7:03 AM MST 5:01 PM MST
Nautical Twilight 6:26 AM MST 5:38 PM MST
Astronomical Twilight 5:51 AM MST 6:13 PM MST
Moon 2:39 PM MST 5:09 AM MST
Length of Visible Light 9h 58m
Length of Day
8h 51m
Waxing Gibbous, 94% of the Moon is Illuminated
Dec 25
Waxing Gibbous
Dec 28
Full
Jan 4
Last Quarter
Jan 11
New
Jan 18
First Quarter

Hourly Weather History & Observations

Time (MST) Temp. Windchill Dew Point Humidity Pressure Visibility Wind Dir Wind Speed Gust Speed Precip Events Conditions
12:53 AM 5.0 °F -10.0 °F 1.9 °F 87% 30.34 in 3.0 mi NNW 10.4 mph - N/A   Overcast
1:08 AM 3.2 °F -12.2 °F 1.4 °F 92% 30.16 in 2.0 mi NNW 10.4 mph - 0.00 in Snow Light Snow
1:20 AM 3.2 °F -11.3 °F 1.4 °F 92% 30.16 in 3.0 mi NNW 9.2 mph - 0.01 in   Overcast
1:48 AM 1.4 °F -9.9 °F 1.4 °F 100% 30.17 in 3.0 mi NNW 5.8 mph - 0.01 in   Overcast
1:53 AM 1.9 °F -7.6 °F -0.0 °F 91% 30.38 in 3.0 mi NW 4.6 mph - 0.01 in   Overcast
2:27 AM 1.4 °F -9.9 °F -2.2 °F 85% 30.18 in 8.0 mi NW 5.8 mph - N/A   Overcast
2:53 AM 1.0 °F -10.3 °F -0.9 °F 91% 30.42 in 8.0 mi NW 5.8 mph - N/A   Overcast
3:53 AM 1.0 °F - -2.0 °F 87% 30.43 in 7.0 mi Calm Calm - N/A   Overcast
4:02 AM -0.4 °F - -2.2 °F 92% 30.19 in 9.0 mi Calm Calm - N/A   Overcast
4:53 AM -2.0 °F - -5.1 °F 87% 30.44 in 7.0 mi Calm Calm - N/A   Overcast
5:44 AM -4.0 °F -12.4 °F -7.6 °F 85% 30.20 in 7.0 mi West 3.5 mph - N/A   Overcast
5:53 AM -4.0 °F -12.4 °F -7.1 °F 87% 30.47 in 9.0 mi WSW 3.5 mph - N/A   Mostly Cloudy
6:10 AM -4.0 °F -12.4 °F -7.6 °F 85% 30.21 in 10.0 mi West 3.5 mph - N/A   Partly Cloudy
6:53 AM -0.0 °F -11.6 °F -2.0 °F 91% 30.48 in 10.0 mi West 5.8 mph - N/A   Overcast
7:53 AM 1.9 °F -7.6 °F -0.9 °F 88% 30.49 in 3.0 mi West 4.6 mph - 0.00 in Snow Light Snow
8:15 AM 1.4 °F - -0.4 °F 92% 30.22 in 1.8 mi Calm Calm - 0.00 in Snow Light Snow
8:28 AM 1.4 °F -6.2 °F -0.4 °F 92% 30.22 in 1.2 mi SW 3.5 mph - 0.00 in Snow Light Snow
8:34 AM 1.4 °F -6.2 °F -0.4 °F 92% 30.22 in 2.0 mi WSW 3.5 mph - 0.00 in Snow Light Snow
8:40 AM 3.2 °F -4.2 °F -0.4 °F 85% 30.22 in 1.8 mi SW 3.5 mph - 0.00 in Snow Light Snow
8:53 AM 3.0 °F - -0.9 °F 84% 30.48 in 1.5 mi Calm Calm - 0.00 in Snow Light Snow
9:15 AM 3.2 °F - -0.4 °F 85% 30.21 in 2.0 mi Calm Calm - 0.01 in Snow Light Snow
9:30 AM 3.2 °F -9.1 °F -0.4 °F 85% 30.21 in 5.0 mi South 6.9 mph - 0.01 in Snow Light Snow
9:53 AM 5.0 °F -9.1 °F -0.0 °F 80% 30.46 in 6.0 mi South 9.2 mph - 0.01 in   Haze
10:27 AM 6.8 °F -3.5 °F 1.4 °F 79% 30.21 in 2.5 mi South 5.8 mph - 0.00 in Snow Light Snow
10:53 AM 7.0 °F -5.7 °F 3.0 °F 84% 30.43 in 2.0 mi South 8.1 mph - 0.00 in Snow Light Snow
11:02 AM 6.8 °F -7.8 °F 1.4 °F 79% 30.18 in 1.8 mi South 10.4 mph - 0.00 in Snow Light Snow
11:12 AM 8.6 °F -5.5 °F 3.2 °F 79% 30.17 in 3.0 mi South 10.4 mph - 0.00 in   Haze
11:29 AM 8.6 °F -4.7 °F 3.2 °F 79% 30.17 in 7.0 mi South 9.2 mph - 0.00 in   Overcast
11:53 AM 9.0 °F -5.9 °F 3.0 °F 77% 30.38 in 2.5 mi South 11.5 mph - 0.00 in Snow Light Snow
11:58 AM 8.6 °F -3.7 °F 3.2 °F 79% 30.14 in 3.0 mi South 8.1 mph - 0.00 in Snow Light Snow
12:25 PM 10.4 °F -4.8 °F 3.2 °F 73% 30.11 in 10.0 mi South 12.7 mph - 0.00 in   Scattered Clouds
12:53 PM 10.9 °F -2.6 °F 3.9 °F 73% 30.33 in 10.0 mi South 10.4 mph - 0.00 in   Clear
1:53 PM 12.0 °F -1.3 °F 5.0 °F 73% 30.30 in 10.0 mi South 10.4 mph - N/A   Overcast
2:53 PM 12.9 °F -0.2 °F 6.1 °F 74% 30.28 in 10.0 mi South 10.4 mph - N/A   Clear
3:53 PM 10.9 °F 0.2 °F 3.9 °F 73% 30.30 in 10.0 mi South 6.9 mph - N/A   Clear
4:53 PM 7.0 °F -4.5 °F 1.9 °F 80% 30.32 in 10.0 mi South 6.9 mph - N/A   Clear
5:53 PM 6.1 °F -9.5 °F 1.9 °F 83% 30.32 in 10.0 mi South 11.5 mph - N/A   Clear
6:53 PM 6.1 °F -5.6 °F 1.9 °F 83% 30.29 in 10.0 mi SSE 6.9 mph - N/A   Clear
7:53 PM 3.9 °F -8.2 °F -0.0 °F 84% 30.27 in 10.0 mi SE 6.9 mph - N/A   Clear
8:53 PM 3.0 °F -13.3 °F -0.0 °F 87% 30.26 in 10.0 mi SSE 11.5 mph - N/A   Clear
9:53 PM 3.9 °F -12.2 °F -0.0 °F 84% 30.22 in 10.0 mi SE 11.5 mph - N/A   Clear
10:53 PM 5.0 °F -12.3 °F -0.0 °F 80% 30.18 in 10.0 mi SE 13.8 mph - N/A   Clear
11:53 PM 5.0 °F -8.1 °F -0.4 °F 78% 29.92 in 10.0 mi SE 8.1 mph - N/A   Clear